Regional Weather Roundup
Issued by NWS

Home | Current Version | Previous Version | Graphics & Text | Print | Product List | Glossary On
Versions: 1 2 3 4 5 6 7 8 9 10 11 12 13 14 15 16 17 18 19 20 21 22 23 24 25 26 27 28 29 30 31 32 33 34 35 36 37 38 39 40 41 42 43 44 45 46 47 48 49 50
270
ASUS43 KBIS 220602
RWRND

NORTH DAKOTA REGIONAL WEATHER ROUNDUP
NATIONAL WEATHER SERVICE BISMARCK ND
1200 AM CST SUN JAN 22 2017

NOTE: "FAIR" INDICATES FEW OR NO CLOUDS BELOW 12,000 FEET WITH NO
SIGNIFICANT WEATHER AND/OR OBSTRUCTIONS TO VISIBILITY.


NDZ001>003-009>011-017-220700-
NORTHWEST NORTH DAKOTA

CITY           SKY/WX    TMP DP  RH WIND       PRES   REMARKS
WILLISTON      CLOUDY    30  28  92 W8        29.62R
6HR MIN TEMP:  30; 6HR MAX TEMP:  31;

MINOT          CLOUDY    30  28  92 SW5       29.57R FOG
MINOT AFB      CLOUDY    30  28  93 W10       29.56R
$$

NDZ018>021-031>035-040>046-220700-
SOUTHWEST NORTH DAKOTA

CITY           SKY/WX    TMP DP  RH WIND       PRES   REMARKS
BISMARCK       FOG       15  14  95 CALM      29.62R VSB 1/4
6HR MIN TEMP:  15; 6HR MAX TEMP:  30;

DICKINSON      FAIR      19  15  84 W12       29.58R WCI   7
GARRISON         N/A     27  25  92 W9        29.59R WCI  18
6HR MIN TEMP:  23; 6HR MAX TEMP:  27;

HETTINGER ARPT CLEAR     19  16  88 NW8       29.62R WCI   9
$$

NDZ004>008-012>016-024-026-027-054-220700-
NORTHEAST NORTH DAKOTA

CITY           SKY/WX    TMP DP  RH WIND       PRES   REMARKS
GRAND FORKS    FOG       34  32  92 CALM      29.58R VSB 1/2
GRND FRKS AFB  CLOUDY    32  32 100 W3        29.59R FOG
DEVILS LAKE    CLOUDY    32  31  96 SW12      29.58R FOG
$$

NDZ022-023-025-028>030-036>039-047>053-220700-
SOUTHEAST NORTH DAKOTA

CITY           SKY/WX    TMP DP  RH WIND       PRES   REMARKS
FARGO          FOG       36  34  92 CALM      29.58R VSB 1/4
6HR MIN TEMP:  36; 6HR MAX TEMP:  38;

JAMESTOWN      CLOUDY    31  30  96 W8        29.58R FOG
$$





USA.gov is the U.S. government's official web portal to all federal, state and local government web resources and services.